Year,Month,Day,Hour,Minute,Value (Times are PST for temperature in C)
2010,10,15,00,00,9.40
2010,10,15,00,01,9.30
2010,10,15,00,02,9.30
2010,10,15,00,03,9.30
2010,10,15,00,04,9.30
2010,10,15,00,05,9.30
2010,10,15,00,06,9.30
2010,10,15,00,07,9.30
2010,10,15,00,08,9.20
2010,10,15,00,09,9.20
2010,10,15,00,10,9.20
2010,10,15,00,11,9.20
2010,10,15,00,12,9.20
2010,10,15,00,13,9.20
2010,10,15,00,14,9.20
2010,10,15,00,15,9.20
2010,10,15,00,16,9.20
2010,10,15,00,17,9.20
2010,10,15,00,18,9.10
2010,10,15,00,19,9.10
2010,10,15,00,20,9.20
2010,10,15,00,21,9.20
2010,10,15,00,22,9.20
2010,10,15,00,23,9.20
2010,10,15,00,24,9.30
2010,10,15,00,25,9.30
2010,10,15,00,26,9.20
2010,10,15,00,27,9.10
2010,10,15,00,28,9.20
2010,10,15,00,29,9.20
2010,10,15,00,30,9.20
2010,10,15,00,31,9.30
2010,10,15,00,32,9.30
2010,10,15,00,33,9.30
2010,10,15,00,34,9.30
2010,10,15,00,35,9.40
2010,10,15,00,36,9.50
2010,10,15,00,37,9.50
2010,10,15,00,38,9.50
2010,10,15,00,39,9.50
2010,10,15,00,40,9.50
2010,10,15,00,41,9.40
2010,10,15,00,42,9.40
2010,10,15,00,43,9.40
2010,10,15,00,44,9.40
2010,10,15,00,45,9.40
2010,10,15,00,46,9.40
2010,10,15,00,47,9.40
2010,10,15,00,48,9.40
2010,10,15,00,49,9.40
2010,10,15,00,50,9.40
2010,10,15,00,51,9.40
2010,10,15,00,52,9.40
2010,10,15,00,53,9.30
2010,10,15,00,54,9.30
2010,10,15,00,55,9.30
2010,10,15,00,56,9.30
2010,10,15,00,57,9.30
2010,10,15,00,58,9.30
2010,10,15,00,59,9.30
2010,10,15,01,00,9.20
2010,10,15,01,01,9.20
2010,10,15,01,02,9.20
2010,10,15,01,03,9.20
2010,10,15,01,04,9.20
2010,10,15,01,05,9.20
2010,10,15,01,06,9.20
2010,10,15,01,07,9.20
2010,10,15,01,08,9.10
2010,10,15,01,09,9.10
2010,10,15,01,10,9.10
2010,10,15,01,11,9.10
2010,10,15,01,12,9.10
2010,10,15,01,13,9.10
2010,10,15,01,14,9.10
2010,10,15,01,15,9.10
2010,10,15,01,16,9.10
2010,10,15,01,17,9.20
2010,10,15,01,18,9.20
2010,10,15,01,19,9.20
2010,10,15,01,20,9.30
2010,10,15,01,21,9.30
2010,10,15,01,22,9.40
2010,10,15,01,23,9.40
2010,10,15,01,24,9.40
2010,10,15,01,25,9.30
2010,10,15,01,26,9.30
2010,10,15,01,27,9.20
2010,10,15,01,28,9.20
2010,10,15,01,29,9.20
2010,10,15,01,30,9.20
2010,10,15,01,31,9.20
2010,10,15,01,32,9.10
2010,10,15,01,33,9.10
2010,10,15,01,34,9.10
2010,10,15,01,35,9.10
2010,10,15,01,36,9.00
2010,10,15,01,37,9.00
2010,10,15,01,38,9.10
2010,10,15,01,39,9.10
2010,10,15,01,40,9.20
2010,10,15,01,41,9.20
2010,10,15,01,42,9.20
2010,10,15,01,43,9.30
2010,10,15,01,44,9.30
2010,10,15,01,45,9.30
2010,10,15,01,46,9.20
2010,10,15,01,47,9.20
2010,10,15,01,48,9.20
2010,10,15,01,49,9.20
2010,10,15,01,50,9.20
2010,10,15,01,51,9.20
2010,10,15,01,52,9.10
2010,10,15,01,53,9.00
2010,10,15,01,54,9.00
2010,10,15,01,55,9.10
2010,10,15,01,56,9.10
2010,10,15,01,57,9.20
2010,10,15,01,58,9.20
2010,10,15,01,59,9.20
2010,10,15,02,00,9.20
2010,10,15,02,01,9.10
2010,10,15,02,02,9.10
2010,10,15,02,03,9.00
2010,10,15,02,04,9.00
2010,10,15,02,05,8.90
2010,10,15,02,06,8.90
2010,10,15,02,07,9.00
2010,10,15,02,08,9.00
2010,10,15,02,09,9.10
2010,10,15,02,10,9.00
2010,10,15,02,11,8.90
2010,10,15,02,12,8.90
2010,10,15,02,13,9.00
2010,10,15,02,14,9.00
2010,10,15,02,15,9.00
2010,10,15,02,16,8.90
2010,10,15,02,17,8.80
2010,10,15,02,18,8.80
2010,10,15,02,19,8.80
2010,10,15,02,20,8.90
2010,10,15,02,21,9.00
2010,10,15,02,22,9.10
2010,10,15,02,23,9.20
2010,10,15,02,24,9.20
2010,10,15,02,25,9.20
2010,10,15,02,26,9.10
2010,10,15,02,27,9.10
2010,10,15,02,28,9.10
2010,10,15,02,29,9.10
2010,10,15,02,30,9.10
2010,10,15,02,31,9.20
2010,10,15,02,32,9.20
2010,10,15,02,33,9.20
2010,10,15,02,34,9.20
2010,10,15,02,35,9.10
2010,10,15,02,36,9.00
2010,10,15,02,37,8.90
2010,10,15,02,38,8.70
2010,10,15,02,39,8.60
2010,10,15,02,40,8.60
2010,10,15,02,41,8.60
2010,10,15,02,42,8.60
2010,10,15,02,43,8.70
2010,10,15,02,44,8.70
2010,10,15,02,45,8.80
2010,10,15,02,46,8.80
2010,10,15,02,47,8.80
2010,10,15,02,48,8.80
2010,10,15,02,49,8.80
2010,10,15,02,50,8.70
2010,10,15,02,51,8.80
2010,10,15,02,52,8.80
2010,10,15,02,53,8.80
2010,10,15,02,54,8.80
2010,10,15,02,55,8.70
2010,10,15,02,56,8.70
2010,10,15,02,57,8.70
2010,10,15,02,58,8.70
2010,10,15,02,59,8.70
2010,10,15,03,00,8.70
2010,10,15,03,01,8.60
2010,10,15,03,02,8.60
2010,10,15,03,03,8.60
2010,10,15,03,04,8.50
2010,10,15,03,05,8.50
2010,10,15,03,06,8.40
2010,10,15,03,07,8.40
2010,10,15,03,08,8.40
2010,10,15,03,09,8.30
2010,10,15,03,10,8.30
2010,10,15,03,11,8.30
2010,10,15,03,12,8.20
2010,10,15,03,13,8.10
2010,10,15,03,14,8.10
2010,10,15,03,15,8.10
2010,10,15,03,16,8.20
2010,10,15,03,17,8.20
2010,10,15,03,18,8.30
2010,10,15,03,19,8.30
2010,10,15,03,20,8.40
2010,10,15,03,21,8.40
2010,10,15,03,22,8.50
2010,10,15,03,23,8.60
2010,10,15,03,24,8.70
2010,10,15,03,25,8.70
2010,10,15,03,26,8.70
2010,10,15,03,27,8.70
2010,10,15,03,28,8.70
2010,10,15,03,29,8.70
2010,10,15,03,30,8.70
2010,10,15,03,31,8.60
2010,10,15,03,32,8.60
2010,10,15,03,33,8.70
2010,10,15,03,34,8.70
2010,10,15,03,35,8.60
2010,10,15,03,36,8.70
2010,10,15,03,37,8.70
2010,10,15,03,38,8.70
2010,10,15,03,39,8.70
2010,10,15,03,40,8.70
2010,10,15,03,41,8.70
2010,10,15,03,42,8.80
2010,10,15,03,43,8.80
2010,10,15,03,44,8.80
2010,10,15,03,45,8.90
2010,10,15,03,46,8.90
2010,10,15,03,47,8.90
2010,10,15,03,48,9.00
2010,10,15,03,49,9.00
2010,10,15,03,50,9.00
2010,10,15,03,51,8.90
2010,10,15,03,52,8.90
2010,10,15,03,53,8.80
2010,10,15,03,54,8.80
2010,10,15,03,55,8.80
2010,10,15,03,56,8.70
2010,10,15,03,57,8.70
2010,10,15,03,58,8.70
2010,10,15,03,59,8.70
2010,10,15,04,00,8.60
2010,10,15,04,01,8.60
2010,10,15,04,02,8.50
2010,10,15,04,03,8.40
2010,10,15,04,04,8.30
2010,10,15,04,05,8.30
2010,10,15,04,06,8.30
2010,10,15,04,07,8.20
2010,10,15,04,08,8.20
2010,10,15,04,09,8.10
2010,10,15,04,10,8.10
2010,10,15,04,11,8.10
2010,10,15,04,12,8.10
2010,10,15,04,13,8.00
2010,10,15,04,14,8.00
2010,10,15,04,15,8.00
2010,10,15,04,16,8.00
2010,10,15,04,17,8.00
2010,10,15,04,18,8.00
2010,10,15,04,19,8.00
2010,10,15,04,20,8.00
2010,10,15,04,21,7.90
2010,10,15,04,22,7.90
2010,10,15,04,23,7.90
2010,10,15,04,24,7.90
2010,10,15,04,25,7.90
2010,10,15,04,26,7.80
2010,10,15,04,27,7.80
2010,10,15,04,28,7.70
2010,10,15,04,29,7.70
2010,10,15,04,30,7.70
2010,10,15,04,31,7.70
2010,10,15,04,32,7.70
2010,10,15,04,33,7.70
2010,10,15,04,34,7.70
2010,10,15,04,35,7.60
2010,10,15,04,36,7.60
2010,10,15,04,37,7.60
2010,10,15,04,38,7.60
2010,10,15,04,39,7.50
2010,10,15,04,40,7.50
2010,10,15,04,41,7.50
2010,10,15,04,42,7.40
2010,10,15,04,43,7.40
2010,10,15,04,44,7.30
2010,10,15,04,45,7.30
2010,10,15,04,46,7.30
2010,10,15,04,47,7.20
2010,10,15,04,48,7.20
2010,10,15,04,49,7.20
2010,10,15,04,50,7.10
2010,10,15,04,51,7.00
2010,10,15,04,52,6.90
2010,10,15,04,53,6.90
2010,10,15,04,54,6.90
2010,10,15,04,55,6.80
2010,10,15,04,56,6.80
2010,10,15,04,57,6.80
2010,10,15,04,58,6.80
2010,10,15,04,59,6.80
2010,10,15,05,00,6.70
2010,10,15,05,01,6.70
2010,10,15,05,02,6.70
2010,10,15,05,03,6.60
2010,10,15,05,04,6.50
2010,10,15,05,05,6.50
2010,10,15,05,06,6.40
2010,10,15,05,07,6.30
2010,10,15,05,08,6.30
2010,10,15,05,09,6.20
2010,10,15,05,10,6.10
2010,10,15,05,11,6.10
2010,10,15,05,12,6.00
2010,10,15,05,13,6.00
2010,10,15,05,14,5.90
2010,10,15,05,15,5.90
2010,10,15,05,16,5.90
2010,10,15,05,17,5.90
2010,10,15,05,18,5.90
2010,10,15,05,19,5.90
2010,10,15,05,20,5.80
2010,10,15,05,21,5.80
2010,10,15,05,22,5.80
2010,10,15,05,23,5.80
2010,10,15,05,24,5.80
2010,10,15,05,25,5.70
2010,10,15,05,26,5.70
2010,10,15,05,27,5.70
2010,10,15,05,28,5.70
2010,10,15,05,29,5.70
2010,10,15,05,30,5.70
2010,10,15,05,31,5.70
2010,10,15,05,32,5.70
2010,10,15,05,33,5.70
2010,10,15,05,34,5.70
2010,10,15,05,35,5.70
2010,10,15,05,36,5.60
2010,10,15,05,37,5.60
2010,10,15,05,38,5.60
2010,10,15,05,39,5.50
2010,10,15,05,40,5.40
2010,10,15,05,41,5.40
2010,10,15,05,42,5.30
2010,10,15,05,43,5.30
2010,10,15,05,44,5.30
2010,10,15,05,45,5.20
2010,10,15,05,46,5.20
2010,10,15,05,47,5.10
2010,10,15,05,48,5.10
2010,10,15,05,49,5.20
2010,10,15,05,50,5.20
2010,10,15,05,51,5.20
2010,10,15,05,52,5.20
2010,10,15,05,53,5.20
2010,10,15,05,54,5.10
2010,10,15,05,55,5.10
2010,10,15,05,56,5.10
2010,10,15,05,57,5.10
2010,10,15,05,58,5.10
2010,10,15,05,59,5.10
2010,10,15,06,00,5.20
2010,10,15,06,01,5.20
2010,10,15,06,02,5.30
2010,10,15,06,03,5.30
2010,10,15,06,04,5.30
2010,10,15,06,05,5.40
2010,10,15,06,06,5.50
2010,10,15,06,07,5.60
2010,10,15,06,08,5.60
2010,10,15,06,09,5.60
2010,10,15,06,10,5.50
2010,10,15,06,11,5.50
2010,10,15,06,12,5.40
2010,10,15,06,13,5.40
2010,10,15,06,14,5.40
2010,10,15,06,15,5.40
2010,10,15,06,16,5.40
2010,10,15,06,17,5.30
2010,10,15,06,18,5.30
2010,10,15,06,19,5.30
2010,10,15,06,20,5.20
2010,10,15,06,21,5.20
2010,10,15,06,22,5.10
2010,10,15,06,23,5.00
2010,10,15,06,24,4.90
2010,10,15,06,25,4.80
2010,10,15,06,26,4.80
2010,10,15,06,27,4.80
2010,10,15,06,28,4.70
2010,10,15,06,29,4.70
2010,10,15,06,30,4.70
2010,10,15,06,31,4.70
2010,10,15,06,32,4.70
2010,10,15,06,33,4.70
2010,10,15,06,34,4.60
2010,10,15,06,35,4.60
2010,10,15,06,36,4.60
2010,10,15,06,37,4.60
2010,10,15,06,38,4.50
2010,10,15,06,39,4.50
2010,10,15,06,40,4.50
2010,10,15,06,41,4.40
2010,10,15,06,42,4.30
2010,10,15,06,43,4.20
2010,10,15,06,44,4.10
2010,10,15,06,45,4.10
2010,10,15,06,46,4.00
2010,10,15,06,47,3.90
2010,10,15,06,48,3.90
2010,10,15,06,49,3.90
2010,10,15,06,50,3.80
2010,10,15,06,51,3.80
2010,10,15,06,52,3.80
2010,10,15,06,53,3.70
2010,10,15,06,54,3.70
2010,10,15,06,55,3.60
2010,10,15,06,56,3.50
2010,10,15,06,57,3.50
2010,10,15,06,58,3.40
2010,10,15,06,59,3.40
2010,10,15,07,00,3.40
2010,10,15,07,01,3.40
2010,10,15,07,02,3.40
2010,10,15,07,03,3.40
2010,10,15,07,04,3.50
2010,10,15,07,05,3.50
2010,10,15,07,06,3.60
2010,10,15,07,07,3.60
2010,10,15,07,08,3.50
2010,10,15,07,09,3.50
2010,10,15,07,10,3.50
2010,10,15,07,11,3.40
2010,10,15,07,12,3.40
2010,10,15,07,13,3.40
2010,10,15,07,14,3.40
2010,10,15,07,15,3.40
2010,10,15,07,16,3.40
2010,10,15,07,17,3.40
2010,10,15,07,18,3.50
2010,10,15,07,19,3.40
2010,10,15,07,20,3.40
2010,10,15,07,21,3.40
2010,10,15,07,22,3.40
2010,10,15,07,23,3.40
2010,10,15,07,24,3.40
2010,10,15,07,25,3.40
2010,10,15,07,26,3.30
2010,10,15,07,27,3.30
2010,10,15,07,28,3.20
2010,10,15,07,29,3.20
2010,10,15,07,30,3.10
2010,10,15,07,31,3.10
2010,10,15,07,32,3.10
2010,10,15,07,33,3.10
2010,10,15,07,34,3.10
2010,10,15,07,35,3.10
2010,10,15,07,36,3.10
2010,10,15,07,37,3.10
2010,10,15,07,38,3.10
2010,10,15,07,39,3.10
2010,10,15,07,40,3.10
2010,10,15,07,41,3.00
2010,10,15,07,42,3.00
2010,10,15,07,43,3.00
2010,10,15,07,44,2.90
2010,10,15,07,45,2.90
2010,10,15,07,46,2.90
2010,10,15,07,47,2.90
2010,10,15,07,48,3.00
2010,10,15,07,49,3.00
2010,10,15,07,50,3.00
2010,10,15,07,51,3.10
2010,10,15,07,52,3.10
2010,10,15,07,53,3.10
2010,10,15,07,54,3.10
2010,10,15,07,55,3.10
2010,10,15,07,56,3.10
2010,10,15,07,57,3.10
2010,10,15,07,58,3.10
2010,10,15,07,59,3.00
2010,10,15,08,00,3.00
2010,10,15,08,01,3.00
2010,10,15,08,02,3.10
2010,10,15,08,03,3.10
2010,10,15,08,04,3.10
2010,10,15,08,05,3.20
2010,10,15,08,06,3.20
2010,10,15,08,07,3.30
2010,10,15,08,08,3.30
2010,10,15,08,09,3.40
2010,10,15,08,10,3.50
2010,10,15,08,11,3.50
2010,10,15,08,12,3.60
2010,10,15,08,13,3.70
2010,10,15,08,14,3.70
2010,10,15,08,15,3.70
2010,10,15,08,16,3.80
2010,10,15,08,17,3.90
2010,10,15,08,18,3.90
2010,10,15,08,19,4.00
2010,10,15,08,20,4.00
2010,10,15,08,21,4.10
2010,10,15,08,22,4.10
2010,10,15,08,23,4.20
2010,10,15,08,24,4.20
2010,10,15,08,25,4.20
2010,10,15,08,26,4.20
2010,10,15,08,27,4.20
2010,10,15,08,28,4.20
2010,10,15,08,29,4.30
2010,10,15,08,30,4.30
2010,10,15,08,31,4.30
2010,10,15,08,32,4.30
2010,10,15,08,33,4.30
2010,10,15,08,34,4.30
2010,10,15,08,35,4.30
2010,10,15,08,36,4.30
2010,10,15,08,37,4.40
2010,10,15,08,38,4.50
2010,10,15,08,39,4.60
2010,10,15,08,40,4.70
2010,10,15,08,41,4.80
2010,10,15,08,42,4.80
2010,10,15,08,43,4.90
2010,10,15,08,44,5.00
2010,10,15,08,45,5.10
2010,10,15,08,46,5.10
2010,10,15,08,47,5.10
2010,10,15,08,48,5.10
2010,10,15,08,49,5.10
2010,10,15,08,50,5.20
2010,10,15,08,51,5.20
2010,10,15,08,52,5.30
2010,10,15,08,53,5.30
2010,10,15,08,54,5.40
2010,10,15,08,55,5.50
2010,10,15,08,56,5.70
2010,10,15,08,57,5.80
2010,10,15,08,58,6.00
2010,10,15,08,59,6.10
2010,10,15,09,00,6.30
2010,10,15,09,01,6.40
2010,10,15,09,02,6.40
2010,10,15,09,03,6.50
2010,10,15,09,04,6.60
2010,10,15,09,05,6.60
2010,10,15,09,06,6.70
2010,10,15,09,07,6.80
2010,10,15,09,08,6.90
2010,10,15,09,09,6.90
2010,10,15,09,10,7.00
2010,10,15,09,11,7.00
2010,10,15,09,12,7.10
2010,10,15,09,13,7.10
2010,10,15,09,14,7.20
2010,10,15,09,15,7.20
2010,10,15,09,16,7.20
2010,10,15,09,17,7.20
2010,10,15,09,18,7.30
2010,10,15,09,19,7.30
2010,10,15,09,20,7.30
2010,10,15,09,21,7.40
2010,10,15,09,22,7.40
2010,10,15,09,23,7.40
2010,10,15,09,24,7.40
2010,10,15,09,25,7.40
2010,10,15,09,26,7.40
2010,10,15,09,27,7.40
2010,10,15,09,28,7.50
2010,10,15,09,29,7.50
2010,10,15,09,30,7.50
2010,10,15,09,31,7.50
2010,10,15,09,32,7.50
2010,10,15,09,33,7.50
2010,10,15,09,34,7.50
2010,10,15,09,35,7.40
2010,10,15,09,36,7.40
2010,10,15,09,37,7.40
2010,10,15,09,38,7.40
2010,10,15,09,39,7.50
2010,10,15,09,40,7.50
2010,10,15,09,41,7.50
2010,10,15,09,42,7.50
2010,10,15,09,43,7.50
2010,10,15,09,44,7.50
2010,10,15,09,45,7.60
2010,10,15,09,46,7.60
2010,10,15,09,47,7.60
2010,10,15,09,48,7.60
2010,10,15,09,49,7.70
2010,10,15,09,50,7.70
2010,10,15,09,51,7.70
2010,10,15,09,52,7.80
2010,10,15,09,53,7.80
2010,10,15,09,54,7.90
2010,10,15,09,55,7.90
2010,10,15,09,56,7.90
2010,10,15,09,57,7.90
2010,10,15,09,58,7.90
2010,10,15,09,59,7.90
2010,10,15,10,00,8.00
2010,10,15,10,01,8.00
2010,10,15,10,02,8.00
2010,10,15,10,03,8.00
2010,10,15,10,04,8.00
2010,10,15,10,05,7.90
2010,10,15,10,06,7.90
2010,10,15,10,07,7.90
2010,10,15,10,08,8.00
2010,10,15,10,09,8.00
2010,10,15,10,10,8.10
2010,10,15,10,11,8.10
2010,10,15,10,12,8.20
2010,10,15,10,13,8.20
2010,10,15,10,14,8.30
2010,10,15,10,15,8.30
2010,10,15,10,16,8.40
2010,10,15,10,17,8.40
2010,10,15,10,18,8.40
2010,10,15,10,19,8.40
2010,10,15,10,20,8.50
2010,10,15,10,21,8.50
2010,10,15,10,22,8.50
2010,10,15,10,23,8.60
2010,10,15,10,24,8.60
2010,10,15,10,25,8.50
2010,10,15,10,26,8.50
2010,10,15,10,27,8.50
2010,10,15,10,28,8.60
2010,10,15,10,29,8.60
2010,10,15,10,30,8.60
2010,10,15,10,31,8.60
2010,10,15,10,32,8.70
2010,10,15,10,33,8.70
2010,10,15,10,34,8.70
2010,10,15,10,35,8.70
2010,10,15,10,36,8.70
2010,10,15,10,37,8.80
2010,10,15,10,38,8.80
2010,10,15,10,39,8.80
2010,10,15,10,40,8.80
2010,10,15,10,41,8.80
2010,10,15,10,42,8.90
2010,10,15,10,43,8.90
2010,10,15,10,44,9.00
2010,10,15,10,45,9.10
2010,10,15,10,46,9.10
2010,10,15,10,47,9.20
2010,10,15,10,48,9.20
2010,10,15,10,49,9.20
2010,10,15,10,50,9.20
2010,10,15,10,51,9.20
2010,10,15,10,52,9.20
2010,10,15,10,53,9.30
2010,10,15,10,54,9.30
2010,10,15,10,55,9.30
2010,10,15,10,56,9.40
2010,10,15,10,57,9.40
2010,10,15,10,58,9.40
2010,10,15,10,59,9.40
2010,10,15,11,00,9.50
2010,10,15,11,01,9.50
2010,10,15,11,02,9.60
2010,10,15,11,03,9.60
2010,10,15,11,04,9.60
2010,10,15,11,05,9.60
2010,10,15,11,06,9.60
2010,10,15,11,07,9.60
2010,10,15,11,08,9.60
2010,10,15,11,09,9.70
2010,10,15,11,10,9.70
2010,10,15,11,11,9.70
2010,10,15,11,12,9.70
2010,10,15,11,13,9.70
2010,10,15,11,14,9.70
2010,10,15,11,15,9.80
2010,10,15,11,16,9.80
2010,10,15,11,17,9.90
2010,10,15,11,18,9.90
2010,10,15,11,19,9.90
2010,10,15,11,20,9.90
2010,10,15,11,21,10.00
2010,10,15,11,22,10.00
2010,10,15,11,23,10.10
2010,10,15,11,24,10.10
2010,10,15,11,25,10.10
2010,10,15,11,26,10.20
2010,10,15,11,27,10.30
2010,10,15,11,28,10.30
2010,10,15,11,29,10.30
2010,10,15,11,30,10.30
2010,10,15,11,31,10.30
2010,10,15,11,32,10.30
2010,10,15,11,33,10.30
2010,10,15,11,34,10.30
2010,10,15,11,35,10.40
2010,10,15,11,36,10.50
2010,10,15,11,37,10.70
2010,10,15,11,38,10.80
2010,10,15,11,39,10.80
2010,10,15,11,40,10.90
2010,10,15,11,41,11.00
2010,10,15,11,42,11.00
2010,10,15,11,43,11.10
2010,10,15,11,44,11.10
2010,10,15,11,45,11.00
2010,10,15,11,46,11.00
2010,10,15,11,47,11.00
2010,10,15,11,48,11.00
2010,10,15,11,49,11.00
2010,10,15,11,50,11.00
2010,10,15,11,51,11.00
2010,10,15,11,52,11.00
2010,10,15,11,53,11.10
2010,10,15,11,54,11.20
2010,10,15,11,55,11.30
2010,10,15,11,56,11.40
2010,10,15,11,57,11.50
2010,10,15,11,58,11.60
2010,10,15,11,59,11.70
2010,10,15,12,00,11.80
2010,10,15,12,01,11.80
2010,10,15,12,02,11.80
2010,10,15,12,03,11.70
2010,10,15,12,04,11.70
2010,10,15,12,05,11.70
2010,10,15,12,06,11.80
2010,10,15,12,07,11.90
2010,10,15,12,08,11.90
2010,10,15,12,09,12.00
2010,10,15,12,10,12.10
2010,10,15,12,11,12.20
2010,10,15,12,12,12.20
2010,10,15,12,13,12.20
2010,10,15,12,14,12.10
2010,10,15,12,15,11.90
2010,10,15,12,16,11.80
2010,10,15,12,17,11.70
2010,10,15,12,18,11.70
2010,10,15,12,19,11.60
2010,10,15,12,20,11.60
2010,10,15,12,21,11.50
2010,10,15,12,22,11.30
2010,10,15,12,23,11.40
2010,10,15,12,24,11.40
2010,10,15,12,25,11.50
2010,10,15,12,26,11.60
2010,10,15,12,27,11.70
2010,10,15,12,28,11.80
2010,10,15,12,29,12.00
2010,10,15,12,30,12.10
2010,10,15,12,31,12.20
2010,10,15,12,32,12.30
2010,10,15,12,33,12.20
2010,10,15,12,34,12.20
2010,10,15,12,35,12.20
2010,10,15,12,36,12.10
2010,10,15,12,37,12.10
2010,10,15,12,38,12.00
2010,10,15,12,39,12.00
2010,10,15,12,40,12.00
2010,10,15,12,41,12.10
2010,10,15,12,42,12.00
2010,10,15,12,43,11.90
2010,10,15,12,44,11.90
2010,10,15,12,45,11.90
2010,10,15,12,46,11.90
2010,10,15,12,47,11.90
2010,10,15,12,48,11.90
2010,10,15,12,49,11.90
2010,10,15,12,50,11.90
2010,10,15,12,51,11.90
2010,10,15,12,52,12.00
2010,10,15,12,53,12.00
2010,10,15,12,54,12.10
2010,10,15,12,55,12.10
2010,10,15,12,56,12.10
2010,10,15,12,57,12.10
2010,10,15,12,58,12.00
2010,10,15,12,59,11.90
2010,10,15,13,00,11.90
2010,10,15,13,01,11.90
2010,10,15,13,02,12.00
2010,10,15,13,03,12.10
2010,10,15,13,04,12.10
2010,10,15,13,05,12.10
2010,10,15,13,06,12.10
2010,10,15,13,07,12.10
2010,10,15,13,08,12.00
2010,10,15,13,09,11.90
2010,10,15,13,10,11.80
2010,10,15,13,11,11.80
2010,10,15,13,12,11.90
2010,10,15,13,13,11.90
2010,10,15,13,14,12.00
2010,10,15,13,15,12.00
2010,10,15,13,16,12.10
2010,10,15,13,17,12.00
2010,10,15,13,18,12.10
2010,10,15,13,19,12.10
2010,10,15,13,20,12.10
2010,10,15,13,21,12.10
2010,10,15,13,22,12.00
2010,10,15,13,23,11.90
2010,10,15,13,24,12.00
2010,10,15,13,25,12.00
2010,10,15,13,26,12.10
2010,10,15,13,27,12.20
2010,10,15,13,28,12.30
2010,10,15,13,29,12.40
2010,10,15,13,30,12.50
2010,10,15,13,31,12.50
2010,10,15,13,32,12.60
2010,10,15,13,33,12.60
2010,10,15,13,34,12.70
2010,10,15,13,35,12.70
2010,10,15,13,36,12.60
2010,10,15,13,37,12.60
2010,10,15,13,38,12.60
2010,10,15,13,39,12.50
2010,10,15,13,40,12.50
2010,10,15,13,41,12.40
2010,10,15,13,42,12.40
2010,10,15,13,43,12.40
2010,10,15,13,44,12.50
2010,10,15,13,45,12.60
2010,10,15,13,46,12.60
2010,10,15,13,47,12.50
2010,10,15,13,48,12.40
2010,10,15,13,49,12.30
2010,10,15,13,50,12.40
2010,10,15,13,51,12.40
2010,10,15,13,52,12.40
2010,10,15,13,53,12.40
2010,10,15,13,54,12.40
2010,10,15,13,55,12.40
2010,10,15,13,56,12.40
2010,10,15,13,57,12.40
2010,10,15,13,58,12.40
2010,10,15,13,59,12.40
2010,10,15,14,00,12.50
2010,10,15,14,01,12.60
2010,10,15,14,02,12.60
2010,10,15,14,03,12.60
2010,10,15,14,04,12.50
2010,10,15,14,05,12.40
2010,10,15,14,06,12.40
2010,10,15,14,07,12.40
2010,10,15,14,08,12.50
2010,10,15,14,09,12.60
2010,10,15,14,10,12.60
2010,10,15,14,11,12.70
2010,10,15,14,12,12.60
2010,10,15,14,13,12.60
2010,10,15,14,14,12.50
2010,10,15,14,15,12.40
2010,10,15,14,16,12.50
2010,10,15,14,17,12.50
2010,10,15,14,18,12.50
2010,10,15,14,19,12.40
2010,10,15,14,20,12.40
2010,10,15,14,21,12.40
2010,10,15,14,22,12.40
2010,10,15,14,23,12.40
2010,10,15,14,24,12.40
2010,10,15,14,25,12.40
2010,10,15,14,26,12.30
2010,10,15,14,27,12.30
2010,10,15,14,28,12.30
2010,10,15,14,29,12.30
2010,10,15,14,30,12.30
2010,10,15,14,31,12.40
2010,10,15,14,32,12.40
2010,10,15,14,33,12.40
2010,10,15,14,34,12.50
2010,10,15,14,35,12.50
2010,10,15,14,36,12.60
2010,10,15,14,37,12.60
2010,10,15,14,38,12.50
2010,10,15,14,39,12.40
2010,10,15,14,40,12.40
2010,10,15,14,41,12.30
2010,10,15,14,42,12.20
2010,10,15,14,43,12.10
2010,10,15,14,44,12.10
2010,10,15,14,45,12.10
2010,10,15,14,46,12.10
2010,10,15,14,47,12.10
2010,10,15,14,48,12.10
2010,10,15,14,49,12.10
2010,10,15,14,50,12.10
2010,10,15,14,51,12.10
2010,10,15,14,52,12.10
2010,10,15,14,53,12.10
2010,10,15,14,54,12.00
2010,10,15,14,55,12.00
2010,10,15,14,56,12.10
2010,10,15,14,57,12.10
2010,10,15,14,58,12.10
2010,10,15,14,59,12.00
2010,10,15,15,00,11.90
2010,10,15,15,01,11.90
2010,10,15,15,02,11.90
2010,10,15,15,03,11.90
2010,10,15,15,04,12.00
2010,10,15,15,05,12.00
2010,10,15,15,06,12.00
2010,10,15,15,07,12.00
2010,10,15,15,08,12.10
2010,10,15,15,09,12.10
2010,10,15,15,10,12.10
2010,10,15,15,11,12.10
2010,10,15,15,12,12.10
2010,10,15,15,13,12.20
2010,10,15,15,14,12.20
2010,10,15,15,15,12.20
2010,10,15,15,16,12.20
2010,10,15,15,17,12.20
2010,10,15,15,18,12.20
2010,10,15,15,19,12.20
2010,10,15,15,20,12.30
2010,10,15,15,21,12.30
2010,10,15,15,22,12.20
2010,10,15,15,23,12.10
2010,10,15,15,24,12.00
2010,10,15,15,25,11.90
2010,10,15,15,26,11.80
2010,10,15,15,27,11.80
2010,10,15,15,28,11.80
2010,10,15,15,29,11.80
2010,10,15,15,30,11.70
2010,10,15,15,31,11.70
2010,10,15,15,32,11.70
2010,10,15,15,33,11.70
2010,10,15,15,34,11.70
2010,10,15,15,35,11.70
2010,10,15,15,36,11.70
2010,10,15,15,37,11.70
2010,10,15,15,38,11.70
2010,10,15,15,39,11.70
2010,10,15,15,40,11.70
2010,10,15,15,41,11.70
2010,10,15,15,42,11.70
2010,10,15,15,43,11.60
2010,10,15,15,44,11.60
2010,10,15,15,45,11.60
2010,10,15,15,46,11.50
2010,10,15,15,47,11.50
2010,10,15,15,48,11.50
2010,10,15,15,49,11.50
2010,10,15,15,50,11.50
2010,10,15,15,51,11.50
2010,10,15,15,52,11.50
2010,10,15,15,53,11.50
2010,10,15,15,54,11.50
2010,10,15,15,55,11.40
2010,10,15,15,56,11.40
2010,10,15,15,57,11.40
2010,10,15,15,58,11.40
2010,10,15,15,59,11.40
2010,10,15,16,00,11.50
2010,10,15,16,01,11.50
2010,10,15,16,02,11.50
2010,10,15,16,03,11.50
2010,10,15,16,04,11.40
2010,10,15,16,05,11.40
2010,10,15,16,06,11.30
2010,10,15,16,07,11.30
2010,10,15,16,08,11.30
2010,10,15,16,09,11.30
2010,10,15,16,10,11.30
2010,10,15,16,11,11.30
2010,10,15,16,12,11.30
2010,10,15,16,13,11.20
2010,10,15,16,14,11.20
2010,10,15,16,15,11.20
2010,10,15,16,16,11.20
2010,10,15,16,17,11.30
2010,10,15,16,18,11.30
2010,10,15,16,19,11.30
2010,10,15,16,20,11.30
2010,10,15,16,21,11.30
2010,10,15,16,22,11.20
2010,10,15,16,23,11.20
2010,10,15,16,24,11.20
2010,10,15,16,25,11.20
2010,10,15,16,26,11.10
2010,10,15,16,27,11.10
2010,10,15,16,28,11.10
2010,10,15,16,29,11.20
2010,10,15,16,30,11.20
2010,10,15,16,31,11.20
2010,10,15,16,32,11.20
2010,10,15,16,33,11.20
2010,10,15,16,34,11.20
2010,10,15,16,35,11.10
2010,10,15,16,36,11.10
2010,10,15,16,37,11.00
2010,10,15,16,38,11.00
2010,10,15,16,39,11.00
2010,10,15,16,40,11.00
2010,10,15,16,41,11.00
2010,10,15,16,42,11.00
2010,10,15,16,43,11.00
2010,10,15,16,44,11.00
2010,10,15,16,45,10.90
2010,10,15,16,46,11.00
2010,10,15,16,47,11.00
2010,10,15,16,48,11.00
2010,10,15,16,49,11.00
2010,10,15,16,50,11.00
2010,10,15,16,51,10.90
2010,10,15,16,52,10.90
2010,10,15,16,53,10.90
2010,10,15,16,54,10.90
2010,10,15,16,55,10.90
2010,10,15,16,56,11.00
2010,10,15,16,57,11.00
2010,10,15,16,58,11.10
2010,10,15,16,59,11.10
2010,10,15,17,00,11.10
2010,10,15,17,01,11.10
2010,10,15,17,02,11.10
2010,10,15,17,03,11.10
2010,10,15,17,04,11.20
2010,10,15,17,05,11.20
2010,10,15,17,06,11.20
2010,10,15,17,07,11.10
2010,10,15,17,08,11.10
2010,10,15,17,09,11.10
2010,10,15,17,10,11.10
2010,10,15,17,11,11.10
2010,10,15,17,12,11.10
2010,10,15,17,13,11.00
2010,10,15,17,14,11.00
2010,10,15,17,15,11.00
2010,10,15,17,16,10.90
2010,10,15,17,17,10.90
2010,10,15,17,18,10.90
2010,10,15,17,19,10.90
2010,10,15,17,20,10.80
2010,10,15,17,21,10.80
2010,10,15,17,22,10.80
2010,10,15,17,23,10.80
2010,10,15,17,24,10.80
2010,10,15,17,25,10.70
2010,10,15,17,26,10.70
2010,10,15,17,27,10.70
2010,10,15,17,28,10.70
2010,10,15,17,29,10.70
2010,10,15,17,30,10.70
2010,10,15,17,31,10.70
2010,10,15,17,32,10.70
2010,10,15,17,33,10.70
2010,10,15,17,34,10.70
2010,10,15,17,35,10.60
2010,10,15,17,36,10.60
2010,10,15,17,37,10.60
2010,10,15,17,38,10.50
2010,10,15,17,39,10.50
2010,10,15,17,40,10.50
2010,10,15,17,41,10.40
2010,10,15,17,42,10.40
2010,10,15,17,43,10.40
2010,10,15,17,44,10.40
2010,10,15,17,45,10.40
2010,10,15,17,46,10.40
2010,10,15,17,47,10.40
2010,10,15,17,48,10.40
2010,10,15,17,49,10.40